Regional Weather Roundup
Issued by NWS

Home | Current Version | Previous Version | Text Only | Print | Product List | Glossary Off
Versions: 1 2 3 4 5 6 7 8 9 10 11 12 13 14 15 16 17 18 19 20 21 22 23 24 25 26 27 28 29 30 31 32 33 34 35 36 37 38 39 40 41 42 43 44 45 46 47 48 49 50

000
ASUS43 KDMX 140706
RWRIA

WEATHER ROUNDUP FOR IOWA
NATIONAL WEATHER SERVICE DES MOINES IA
100 AM CST THU DEC 14 2017

NOTE: "FAIR" INDICATES FEW OR NO CLOUDS BELOW 12,000 FEET WITH NO
SIGNIFICANT WEATHER AND/OR OBSTRUCTIONS TO VISIBILITY.

* - THESE STATIONS ARE NOT NWS STATIONS...THUS NOT UNDER NWS
QUALITY CONTROL.  THEY ALSO DO NOT REPORT WEATHER SUCH
AS PRECIPITATION OR FOG.

IAZ001>003-012>014-020>022-031>034-043>046-140800-
   NORTHWEST IOWA

CITY           SKY/WX    TMP DP  RH WIND       PRES   REMARKS
CARROLL *      MOCLDY    27  21  80 N9        29.97S WCI  17
CHEROKEE *     CLOUDY    28  25  89 N5        29.99S WCI  23
DENISON *      CLOUDY    30  25  80 N5        30.00R WCI  25
LE MARS *      CLOUDY    30  27  86 N3        30.00S
ORANGE CITY *  CLOUDY    30  27  86 N7        29.98S WCI  23
SHELDON *      CLOUDY    27  23  86 N14       29.97S WCI  15
SIOUX CITY     CLOUDY    34  27  75 N9        30.01R WCI  27
SPENCER        CLOUDY    25  18  74 N14       29.98R WCI  13
STORM LAKE *   CLOUDY    27  21  80 N14       29.97R WCI  15
$$

IAZ055>058-069>071-079>083-090>094-140800-
   SOUTHWEST IOWA

CITY           SKY/WX    TMP DP  RH WIND       PRES   REMARKS
ATLANTIC *     CLOUDY    32  25  74 NE9       29.98R WCI  24
AUDUBON *      MOCLDY    30  25  80 N10       29.98R WCI  21
CLARINDA *     CLOUDY    36  25  64 N14         N/A  WCI  27
COUNCIL BLFS * CLOUDY    36  27  69 N13       29.98S WCI  27
CRESTON *      CLOUDY    30  23  74 N16       29.97S WCI  19
HARLAN  *      CLOUDY    32  25  74 N12       30.02R WCI  23
LAMONI         CLOUDY    32  21  64 N13       29.95R WCI  22
RED OAK *      CLOUDY    36  25  64 N9        29.99R WCI  29
SHENANDOAH *   CLOUDY    37  25  60 N9        29.99F WCI  31
$$

IAZ047>049-059>061-072>074-084-140800-
   CENTRAL IOWA

CITY           SKY/WX    TMP DP  RH WIND       PRES   REMARKS
AMES           CLOUDY    26  19  74 N13       29.96S WCI  15
ANKENY *       CLOUDY    27  19  74 N9G18     29.97F WCI  17
BOONE *        CLOUDY    27  19  74 N7G15     29.95S WCI  19
CHARITON *     CLOUDY    30  21  69 N14       29.95R WCI  20
DES MOINES     MOCLDY    29  19  66 N12       29.96S WCI  19
GRINNELL*      CLOUDY    26  19  75 N12       29.96S WCI  15
KNOXVILLE *    CLOUDY    28  19  69 N10G16    29.93F WCI  19
MARSHALLTOWN   CLOUDY    25  17  72 N10       29.96R WCI  15
NEWTON *       CLOUDY    27  18  69 N13       29.95S WCI  16
PELLA *        CLOUDY    28  19  69 N9        29.96S WCI  19
PERRY *        CLOUDY    27  20  75 N8        29.97S WCI  19
$$

IAZ004>006-015-016-023>025-035-036-140800-
   NORTH CENTRAL IOWA

CITY           SKY/WX    TMP DP  RH WIND       PRES   REMARKS
ALGONA *       CLOUDY    23  18  80 N10       29.97R WCI  12
CLARION *      CLOUDY    23  19  86 N10       29.96F WCI  12
ESTHERVILLE    CLOUDY    23  18  81 N9        29.97S WCI  13
FORT DODGE *   CLOUDY    25  18  74 N9        29.97S WCI  15
MASON CITY     CLOUDY    22  14  71 N12       29.97R WCI  10
FOREST CITY *  CLOUDY    23  19  86 N10       29.96S WCI  12
WEBSTER CITY * CLOUDY    23  16  74 N9        29.95R WCI  13
IOWA FALLS *   CLOUDY    26  19  74 NW9       29.96S WCI  16
$$

IAZ007>011-017>019-026>030-037>042-050>054-066-140800-
   NORTHEAST IOWA

CITY           SKY/WX    TMP DP  RH WIND       PRES   REMARKS
CEDAR RAPIDS   CLOUDY    21  14  74 N10       29.94R WCI  10
CHARLES CITY * CLOUDY    19  14  79 N5        29.96R WCI  13
CLINTON *      CLOUDY    23  17  78 N7        29.93R WCI  15
DECORAH *      CLOUDY    16  12  86 CALM      29.92R
DUBUQUE        CLOUDY    21  14  74 N12       29.91R WCI   9
MONTICELLO *   CLOUDY    23  14  68 N9        29.93R WCI  13
OELWEIN *      CLEAR     16  14  93 N5        29.94R WCI   9
WATERLOO       CLOUDY    18  12  77 N8        29.96R WCI   8
$$

IAZ064-065-067-068-078-140800-
   EAST CENTRAL IOWA

CITY           SKY/WX    TMP DP  RH WIND       PRES   REMARKS
DAVENPORT      CLOUDY    24  15  68 N12       29.95R WCI  13
IOWA CITY      MOCLDY    25  15  66 N14       29.97R WCI  13
MT. PLEASANT * CLOUDY    27  18  68 N10       29.95R WCI  17
MUSCATINE *    CLOUDY    25  16  68 NW8       29.96R WCI  16
QUAD CITIES    CLOUDY    26  16  65 N13       29.93R WCI  15
$$

IAZ062-063-075>077-085>089-095>099-140800-
   SOUTHEAST IOWA

CITY           SKY/WX    TMP DP  RH WIND       PRES   REMARKS
BURLINGTON     CLOUDY    28  18  66 N10       29.93R WCI  19
FAIRFIELD *    CLOUDY    27  18  69 N14G20    29.94R WCI  15
FORT MADISON * CLOUDY    28  19  69 N13       29.94R WCI  18
KEOKUK *       CLOUDY    30  19  64 N12G21    29.92R WCI  21
OSKALOOSA *    CLOUDY    27  19  73 N14       29.95R WCI  15
OTTUMWA        CLOUDY    28  18  66 N14       29.95R WCI  17
WASHINGTON *   CLOUDY    27  19  74 N10       29.96R WCI  17
$$

ABBREVIATIONS USED IN REMARKS
   TC - TEMPERATURES IN CELSIUS
  WCI - WIND CHILL INDEX
   HX - HEAT INDEX
  VSB - VISIBILITY
$$





USA.gov is the U.S. government's official web portal to all federal, state and local government web resources and services.